Theta_e
296 296 297 297 298 299 300 303 300 302 303 307 310 312 315 318 320 321 322 325 331 333 339 342 343 345 345 346 349 350 351 352 354 357 358 358 359 359 360 360 360 361 360 360
292 295 297 296 298 299 300 300 301 303 303 311 313 315 316 317 320 321 319 323 328 334 337 338 342 343 344 346 347 351 351 350 354 357 358 358 358 359 359 359 360 360 359 359
288 294 295 292 297 299 301 303 302 299 305 310 310 312 314 315 319 321 321 323 325 327 333 339 339 343 343 345 348 350 351 352 353 356 356 357 358 359 358 358 359 359 358 358
288 291 285 298 303 303 303 304 305 305 307 310 312 316 319 320 320 321 323 324 327 324 330 339 338 337 344 346 348 349 351 352 354 354 355 356 357 357 358 359 359 358 358 358
286 288 292 295 299 304 305 304 313 309 308 310 312 314 317 319 320 322 324 326 326 326 328 339 340 343 345 346 349 350 351 352 353 352 351 356 355 356 357 357 357 358 359 359
288 284 284 297 303 310 314 299 316 317 317 313 311 307 311 322 320 320 321 324 327 327 330 332 339 340 344 343 347 349 352 353 355 356 355 356 356 357 358 358 357 357 358 360
286 286 290 299 306 315 300 303 318 320 321 321 318 315 321 324 323 324 326 327 327 329 336 339 341 342 344 346 347 351 352 353 357 358 357 358 359 360 360 357 357 356 357 359
287 285 282 302 303 299 311 318 318 320 323 323 324 326 328 325 323 330 335 334 328 333 334 338 342 345 348 350 351 353 354 356 359 360 356 356 359 357 358 358 358 356 356 355
290 290 300 304 306 311 316 315 318 322 324 325 324 325 329 324 337 341 345 345 348 348 344 343 345 348 347 348 351 353 354 356 357 359 359 361 358 356 354 358 355 354 353 352
294 296 299 301 307 309 319 320 323 324 325 324 323 329 329 336 344 346 343 345 348 347 344 342 346 349 350 352 352 352 353 356 357 356 356 360 357 351 353 354 354 354 354 351
293 297 299 302 305 310 314 319 322 322 321 321 329 332 336 340 340 339 337 336 335 334 332 333 336 337 341 348 354 350 350 350 351 353 353 357 359 358 355 359 354 355 355 355
289 299 300 303 308 314 317 317 322 319 321 325 329 330 336 335 335 336 337 339 338 338 337 336 335 335 337 340 345 352 351 347 345 346 349 352 353 342 310 309 313 315 318 342
297 301 302 306 309 314 317 321 319 318 325 326 328 327 327 326 328 326 335 336 336 332 334 336 339 339 337 342 343 342 342 343 341 338 345 344 343 342 340 327 304 305 307 308
302 302 300 303 306 317 318 321 318 321 325 328 327 328 327 327 328 330 332 335 337 338 335 332 332 333 340 341 341 340 339 319 337 339 338 339 340 340 337 334 330 318 306 311
298 301 302 307 316 318 316 318 318 320 323 324 327 327 326 325 326 328 331 332 332 331 331 333 334 333 340 337 336 335 335 336 337 333 330 328 330 329 330 331 332 325 320 312
300 302 303 308 312 313 315 315 318 321 324 323 322 324 325 327 327 327 326 327 326 325 327 329 330 333 338 339 337 336 337 323 330 332 329 327 328 326 326 324 325 324 324 320
303 306 309 308 312 313 313 314 316 317 320 321 322 323 322 319 317 318 320 322 321 320 322 325 329 336 339 338 335 333 334 335 326 339 337 333 330 327 328 324 323 324 323 319
312 312 312 312 312 314 317 318 319 320 318 319 320 320 317 315 312 313 316 319 320 320 320 323 324 332 336 338 339 337 333 332 334 332 332 331 331 330 329 327 325 321 317 311
308 309 311 314 315 315 315 315 316 319 320 320 317 312 312 312 311 313 315 314 316 316 318 321 320 326 331 328 334 337 337 333 332 333 333 324 331 329 329 327 325 321 320 320
307 306 305 306 308 312 314 316 317 315 314 313 314 312 312 312 314 316 316 312 314 314 319 320 324 326 329 330 326 332 335 335 334 332 332 330 329 327 324 315 322 321 321 324
302 302 303 303 303 303 305 307 308 307 308 310 311 310 310 310 310 313 314 311 312 314 316 316 317 323 324 327 328 329 329 330 331 332 330 329 328 330 328 326 325 322 323 323
302 302 302 302 301 301 302 302 305 306 306 307 309 310 310 312 313 310 309 309 310 308 313 314 314 314 317 320 322 323 326 328 326 324 324 325 324 323 323 325 324 321 320 319
301 302 302 302 301 301 301 302 303 304 304 304 304 307 305 305 306 305 303 304 308 306 310 310 309 311 313 315 316 315 316 318 319 317 312 314 318 320 321 321 323 322 319 318
300 301 301 302 302 302 300 301 302 303 303 303 303 304 305 304 302 303 303 302 302 304 304 305 307 308 311 315 313 312 310 312 312 312 313 306 314 316 314 309 310 316 322 320
300 300 301 301 300 299 300 302 302 302 302 301 301 302 302 302 300 301 302 302 301 304 304 303 304 305 308 311 312 308 307 307 307 309 308 308 306 307 309 309 309 310 312 312
296 297 298 299 299 299 300 300 299 299 300 299 298 299 299 300 300 300 300 299 299 299 301 302 303 305 306 306 307 308 309 307 307 306 305 306 308 304 302 304 307 308 308 307
296 294 297 298 299 298 297 297 297 297 298 297 296 297 297 297 297 297 297 299 298 298 299 300 301 302 302 303 303 303 303 304 300 306 309 308 304 304 306 307 305 306 307 309
Wind_Speed
5 7 6 9 10 10 18 23 23 19 27 20 17 17 11 9 9 9 11 11 11 12 13 14 15 16 18 19 19 21 20 21 23 21 20 20 20 19 19 18 18 18 17 17
8 9 9 11 13 14 15 17 16 21 26 10 7 14 18 19 16 15 13 14 13 11 12 15 17 18 18 19 20 20 21 24 20 19 20 21 20 20 19 19 18 18 18 18
5 8 13 16 21 16 14 13 14 22 17 13 16 16 14 18 18 16 15 14 13 13 13 13 17 18 20 21 17 20 21 19 18 18 19 20 19 19 20 20 19 19 19 19
5 3 11 5 5 6 13 16 20 22 18 15 15 17 18 19 18 20 18 18 15 15 13 15 18 18 18 16 19 20 19 17 16 17 19 19 20 21 20 19 20 19 19 20
6 12 16 18 7 2 4 11 6 13 19 19 18 18 17 15 17 19 19 16 14 14 12 10 13 15 15 16 16 16 18 19 19 21 20 19 21 22 19 18 18 18 16 18
6 9 12 0 7 2 3 14 7 5 9 14 16 18 12 15 18 21 18 15 12 12 9 10 11 14 15 17 17 18 19 21 18 17 18 20 20 18 16 17 17 15 18 19
14 11 9 10 4 1 12 1 6 5 9 13 12 14 15 17 10 12 12 12 11 8 7 5 8 14 16 15 18 18 12 14 15 15 17 15 13 12 12 12 13 16 17 17
12 11 21 6 16 14 5 6 10 13 14 15 16 19 21 20 15 7 7 5 5 6 4 2 5 11 11 12 10 10 11 14 14 14 14 13 14 12 13 12 14 14 14 13
11 9 11 12 16 17 9 15 15 15 17 15 18 20 19 15 9 8 8 8 7 9 11 8 5 8 10 7 9 11 12 12 13 14 14 13 15 15 12 15 15 16 14 14
16 19 23 23 23 22 14 15 14 15 19 17 19 19 16 10 8 8 8 10 9 10 14 13 10 10 7 6 6 8 10 11 12 13 13 14 11 12 14 14 15 15 14 14
16 20 20 23 23 22 20 16 15 12 15 16 18 13 12 11 9 10 9 10 10 9 11 11 9 9 7 5 5 6 7 9 11 11 13 13 14 13 13 15 18 15 15 13
14 15 13 18 17 16 16 17 11 6 12 6 6 8 11 11 10 10 9 8 10 10 10 9 8 7 5 4 3 4 4 4 6 7 9 12 10 8 2 6 13 16 13 13
20 18 17 19 20 20 14 12 8 6 12 6 7 11 9 9 10 11 10 10 10 9 9 8 7 7 3 2 1 1 3 3 2 2 4 6 7 8 10 3 10 10 17 20
15 14 20 23 15 12 11 11 2 11 7 8 10 10 11 12 12 12 12 11 11 12 11 9 8 7 6 6 6 5 5 3 2 1 1 2 4 5 4 4 4 3 9 15
20 22 24 21 9 11 4 7 7 9 12 14 13 14 13 15 15 13 11 11 12 13 13 12 12 10 7 6 5 7 5 3 4 6 7 7 6 6 5 3 1 8 7 6
21 20 18 18 9 9 12 10 6 12 14 19 17 17 16 16 16 14 13 11 14 13 12 11 12 9 8 7 5 6 6 6 6 5 5 5 5 5 4 5 6 8 5 9
9 7 9 6 7 8 10 11 6 16 16 17 19 19 20 16 16 15 12 9 9 10 11 13 16 12 9 9 7 5 3 5 5 2 3 5 5 4 3 3 4 3 8 8
15 9 11 8 2 11 17 16 13 15 16 16 18 18 18 15 13 14 13 10 11 15 17 16 13 12 11 10 8 5 3 4 3 3 4 3 2 4 2 1 2 3 2 3
20 17 14 12 11 10 9 13 13 16 16 19 19 18 17 12 9 5 5 9 14 15 16 15 14 11 11 12 7 5 5 4 4 4 3 3 3 3 4 5 4 4 5 6
23 21 21 23 20 15 13 16 16 14 13 18 18 17 15 9 5 5 9 16 15 10 12 15 12 11 11 11 9 7 6 5 7 5 3 4 4 5 5 6 7 6 6 3
25 26 25 22 21 21 19 16 16 17 15 14 15 13 11 11 14 13 15 14 17 15 13 17 16 11 11 10 9 8 8 8 9 6 5 4 4 8 7 4 7 7 6 4
16 16 18 18 18 17 17 16 16 16 15 14 14 12 13 14 14 16 16 12 10 14 13 14 13 18 13 14 11 11 11 10 9 8 8 6 5 5 6 7 7 6 6 5
14 14 13 12 12 11 16 15 16 17 17 16 15 15 14 12 11 11 12 15 13 16 14 14 18 17 17 14 12 14 14 13 12 10 9 9 9 9 7 7 5 4 3 3
14 14 13 13 16 17 17 14 15 17 15 16 17 16 11 10 12 11 10 13 15 16 15 16 18 19 17 13 14 14 12 14 12 9 7 8 9 8 9 9 8 9 7 4
13 12 15 15 14 10 12 10 13 13 14 15 15 14 15 12 12 10 10 11 19 14 13 17 21 19 13 13 14 13 11 11 11 11 12 11 12 11 10 10 10 9 7 8
11 9 9 12 10 8 8 9 10 10 10 11 12 12 11 11 10 10 11 12 13 13 12 13 14 12 13 13 13 14 13 11 11 12 12 11 11 11 10 11 11 11 11 11
11 12 9 8 8 9 9 9 10 10 10 10 11 11 11 10 11 11 11 11 11 11 11 11 12 13 12 12 12 12 12 11 13 10 10 9 9 10 10 10 9 9 10 11
Wind_Direction
317 308 290 263 254 241 234 236 234 242 242 238 249 278 273 281 283 287 273 256 218 217 215 210 206 205 205 206 202 201 199 202 207 205 203 202 203 201 204 198 200 200 197 202
306 305 290 277 255 250 246 245 256 260 262 259 282 260 269 264 270 275 258 255 250 224 216 213 209 205 201 202 202 195 197 206 203 201 199 201 201 199 199 202 202 199 199 199
263 326 319 268 242 244 247 240 243 244 251 253 253 242 242 255 253 250 248 238 242 237 224 215 212 209 203 200 191 198 202 203 200 198 202 201 200 200 201 201 200 202 204 202
265 286 243 265 360 277 265 249 232 246 249 246 246 249 236 227 237 247 248 252 246 245 237 225 223 217 214 194 194 196 202 202 201 202 204 202 197 203 201 200 202 201 204 205
232 225 283 292 266 285 272 249 299 279 251 247 250 257 261 240 237 245 250 256 249 252 250 244 221 215 198 195 193 193 201 202 201 198 200 200 204 206 202 198 201 206 206 207
195 238 237 132 242 264 171 263 147 325 292 278 257 248 253 250 228 237 243 243 245 245 237 241 227 206 188 192 188 200 202 206 203 201 204 205 209 206 201 204 204 201 204 207
228 248 255 265 262 108 216 122 324 302 295 295 271 264 285 306 287 250 254 243 227 216 221 242 205 193 194 186 198 206 204 204 204 205 209 210 209 205 211 218 220 208 209 206
225 241 241 247 253 242 351 320 313 307 306 296 277 279 280 283 281 229 191 152 166 148 142 112 185 190 185 190 189 189 187 195 199 201 203 204 198 194 201 208 223 215 214 217
227 229 264 303 302 291 304 294 303 297 300 294 283 275 274 263 219 189 155 118 123 128 113 96 101 162 155 154 169 177 186 196 201 203 201 196 195 195 197 193 212 212 212 210
252 254 267 275 278 278 293 293 300 292 290 285 273 268 249 214 183 147 133 122 121 118 101 91 86 95 112 155 157 175 191 196 200 202 200 201 199 189 194 204 223 216 211 215
269 269 278 275 268 278 275 271 287 299 295 276 259 244 193 158 134 120 117 113 112 104 99 97 90 80 70 68 121 169 192 198 204 208 202 201 206 208 215 205 215 215 214 211
247 257 257 262 288 271 262 250 248 282 282 238 143 138 134 118 109 109 110 112 104 100 97 91 91 89 77 53 77 137 150 186 203 211 207 212 197 208 58 348 228 215 209 203
246 261 260 279 289 279 259 246 227 280 249 126 92 101 102 96 89 102 99 97 94 93 94 99 84 81 89 12 302 183 166 180 163 208 222 211 205 208 214 227 20 241 164 148
242 248 256 269 256 245 223 238 120 246 185 119 110 98 102 93 88 84 81 86 93 88 79 74 73 62 44 57 58 52 57 67 56 42 196 213 221 228 210 205 179 119 6 142
226 235 252 257 234 213 212 221 219 179 122 104 95 88 83 77 72 68 64 73 79 75 68 62 53 33 30 28 45 45 29 74 69 70 72 76 63 47 22 3 146 137 126 87
211 232 242 239 205 214 201 148 148 94 89 88 76 72 71 74 72 59 54 52 62 58 50 64 59 28 19 23 22 16 37 63 91 103 118 104 108 98 80 62 60 72 55 350
162 164 158 146 220 154 95 83 111 95 88 81 80 71 66 57 47 26 18 26 55 52 40 37 37 28 31 28 34 43 55 67 58 153 114 64 61 38 49 114 153 178 162 183
61 56 59 76 155 100 109 121 121 104 99 92 83 76 71 62 55 22 357 322 43 51 33 34 24 30 27 28 38 45 85 82 104 115 82 61 84 98 109 108 160 145 104 129
29 42 45 46 31 47 57 77 79 81 86 89 84 78 72 65 62 47 320 15 32 35 15 8 359 32 32 18 17 46 63 113 99 81 84 154 150 119 117 116 139 151 124 146
37 38 45 48 39 41 65 61 67 75 71 73 71 69 72 60 62 72 57 51 36 31 15 11 12 33 30 24 4 37 57 61 75 77 89 103 96 75 74 91 107 96 96 76
23 30 36 35 39 37 42 51 59 52 47 63 80 77 72 57 40 31 42 41 16 18 26 31 28 19 30 23 31 31 30 48 75 68 54 47 65 88 83 70 98 104 110 105
33 33 36 42 45 39 31 42 59 66 59 56 61 68 69 62 64 65 50 36 27 17 40 36 32 25 30 36 39 42 41 49 44 34 31 34 57 55 46 31 45 64 79 56
34 36 41 32 43 56 53 49 53 56 55 52 57 66 66 62 51 49 42 17 35 30 45 38 17 26 43 45 44 45 40 39 38 41 25 13 19 19 30 60 53 75 76 103
37 36 34 36 39 41 42 37 49 51 55 56 53 51 51 67 63 48 45 33 32 42 44 27 24 30 43 48 45 42 43 41 38 33 29 39 39 40 40 37 23 9 20 43
37 35 34 38 42 35 35 39 59 57 59 56 49 47 52 51 57 43 41 42 32 40 39 29 32 32 39 42 50 49 41 39 26 41 51 49 44 36 46 52 40 32 47 42
32 38 42 41 36 34 34 41 53 43 50 53 51 48 48 49 51 49 49 41 39 34 35 36 33 37 42 37 39 40 46 40 40 42 32 33 52 63 53 48 47 49 54 52
40 31 27 34 35 44 41 43 51 49 43 52 55 43 44 43 46 49 41 43 41 35 36 36 34 30 38 35 41 40 37 39 38 33 48 48 37 36 39 50 44 58 54 53